�������l�o���
Date,Time,MP-1(��Sv/h),MP-2(��Sv/h),MP-3(��Sv/h),MP-4(��Sv/h),MP-5(��Sv/h),MP-6(��Sv/h),MP-7(��Sv/h),MP-8(��Sv/h),����,����(m/s),���J
2023/09/25,00:00,0.528,0.801,0.491,1.000,0.714,0.319,0.573,0.531,�k�k��,3.3,��
2023/09/25,00:10,0.529,0.801,0.489,0.999,0.712,0.319,0.573,0.532,�k��,3.8,��
2023/09/25,00:20,0.529,0.802,0.492,1.001,0.715,0.319,0.574,0.532,�k��,4.3,��
2023/09/25,00:30,0.530,0.803,0.492,1.002,0.714,0.321,0.575,0.532,�k��,4.8,��
2023/09/25,00:40,0.527,0.801,0.490,1.001,0.712,0.319,0.574,0.532,�k��,5.0,��
2023/09/25,00:50,0.528,0.802,0.490,1.001,0.712,0.319,0.574,0.531,�k��,5.3,��
2023/09/25,01:00,0.528,0.802,0.489,1.001,0.713,0.318,0.573,0.532,�k��,5.4,��
2023/09/25,01:10,0.527,0.802,0.489,1.002,0.712,0.320,0.575,0.533,�k��,4.6,��
2023/09/25,01:20,0.526,0.803,0.489,1.001,0.714,0.319,0.574,0.531,�k��,4.7,��
2023/09/25,01:30,0.528,0.804,0.490,1.001,0.715,0.320,0.575,0.532,�k��,4.5,��
2023/09/25,01:40,0.528,0.801,0.490,1.000,0.714,0.319,0.573,0.534,�k��,4.3,��
2023/09/25,01:50,0.528,0.802,0.490,1.001,0.714,0.319,0.573,0.531,�k��,5.3,��
2023/09/25,02:00,0.526,0.800,0.490,1.002,0.712,0.319,0.575,0.530,�k��,4.9,��
2023/09/25,02:10,0.527,0.803,0.490,1.001,0.711,0.318,0.574,0.532,�k�k��,4.5,��
2023/09/25,02:20,0.527,0.801,0.490,1.003,0.714,0.319,0.574,0.532,�k�k��,4.6,��
2023/09/25,02:30,0.527,0.801,0.488,1.001,0.713,0.318,0.572,0.533,�k�k��,4.7,��
2023/09/25,02:40,0.529,0.802,0.489,1.002,0.713,0.318,0.574,0.532,�k�k��,4.5,��
2023/09/25,02:50,0.527,0.803,0.489,1.000,0.714,0.319,0.573,0.534,�k�k��,4.8,��
2023/09/25,03:00,0.528,0.802,0.490,1.000,0.711,0.318,0.574,0.532,�k�k��,4.4,��
2023/09/25,03:10,0.530,0.802,0.490,1.001,0.715,0.319,0.574,0.531,�k�k��,4.8,��
2023/09/25,03:20,0.528,0.801,0.492,1.002,0.712,0.320,0.572,0.532,�k�k��,4.3,��
2023/09/25,03:30,0.526,0.801,0.489,1.003,0.712,0.319,0.574,0.533,�k�k��,4.4,��
2023/09/25,03:40,0.526,0.803,0.490,1.002,0.713,0.319,0.575,0.532,�k�k��,4.4,��
2023/09/25,03:50,0.526,0.803,0.490,1.000,0.712,0.319,0.573,0.532,�k�k��,4.2,��
2023/09/25,04:00,0.525,0.801,0.490,1.002,0.713,0.318,0.573,0.532,�k�k��,4.4,��
2023/09/25,04:10,0.529,0.801,0.490,1.001,0.713,0.319,0.574,0.532,�k��,5.1,��
2023/09/25,04:20,0.527,0.801,0.492,1.001,0.711,0.319,0.575,0.531,�k�k��,4.9,��
2023/09/25,04:30,0.528,0.800,0.490,1.001,0.714,0.318,0.574,0.533,�k��,5.2,��
2023/09/25,04:40,0.528,0.801,0.489,1.001,0.714,0.319,0.573,0.533,�k��,5.4,��
2023/09/25,04:50,0.527,0.801,0.490,1.002,0.712,0.317,0.574,0.533,�k�k��,5.6,��
2023/09/25,05:00,0.527,0.799,0.491,1.001,0.713,0.319,0.572,0.532,�k��,5.9,��
2023/09/25,05:10,0.528,0.802,0.490,1.004,0.712,0.319,0.574,0.532,�k��,5.4,��
2023/09/25,05:20,0.527,0.801,0.490,1.003,0.712,0.318,0.573,0.532,�k��,5.3,��
2023/09/25,05:30,0.528,0.801,0.490,1.000,0.712,0.318,0.573,0.532,�k��,5.3,��
2023/09/25,05:40,0.525,0.801,0.490,1.002,0.712,0.320,0.574,0.532,�k��,5.2,��
2023/09/25,05:50,0.527,0.802,0.490,1.001,0.713,0.319,0.574,0.531,�k�k��,6.2,��
2023/09/25,06:00,0.526,0.799,0.488,1.001,0.711,0.320,0.574,0.533,�k��,5.9,��
2023/09/25,06:10,0.528,0.801,0.489,1.003,0.712,0.319,0.575,0.531,�k�k��,5.7,��
2023/09/25,06:20,0.526,0.803,0.489,1.005,0.712,0.319,0.573,0.531,�k�k��,6.0,��
2023/09/25,06:30,0.528,0.800,0.490,1.004,0.713,0.321,0.574,0.532,�k�k��,5.4,��
2023/09/25,06:40,0.529,0.801,0.489,1.003,0.714,0.319,0.574,0.531,�k��,5.7,��
2023/09/25,06:50,0.527,0.803,0.491,1.002,0.714,0.319,0.574,0.533,�k�k��,6.1,��
2023/09/25,07:00,0.528,0.804,0.492,1.003,0.713,0.319,0.575,0.531,�k��,6.1,��
2023/09/25,07:10,0.529,0.802,0.491,1.002,0.713,0.319,0.573,0.533,�k��,7.0,��
2023/09/25,07:20,0.526,0.800,0.491,1.003,0.715,0.318,0.574,0.533,�k�k��,5.4,��
2023/09/25,07:30,0.528,0.800,0.490,1.004,0.712,0.319,0.575,0.533,�k�k��,5.3,��
2023/09/25,07:40,0.528,0.799,0.490,1.003,0.713,0.317,0.574,0.533,�k��,5.7,��
2023/09/25,07:50,0.528,0.802,0.490,1.000,0.714,0.317,0.575,0.534,�k��,5.3,��
2023/09/25,08:00,0.528,0.802,0.489,1.003,0.716,0.318,0.574,0.534,�k�k��,5.1,��
2023/09/25,08:10,0.529,0.803,0.488,1.003,0.712,0.317,0.573,0.533,�k��,4.8,��
2023/09/25,08:20,0.527,0.801,0.487,1.003,0.715,0.318,0.571,0.533,�k��,5.4,��
2023/09/25,08:30,0.527,0.800,0.489,1.003,0.714,0.319,0.573,0.534,�k��,5.3,��
2023/09/25,08:40,0.528,0.800,0.488,1.003,0.713,0.319,0.573,0.532,�k�k��,5.1,��
2023/09/25,08:50,0.527,0.800,0.490,1.004,0.715,0.317,0.572,0.532,�k�k��,5.3,��
2023/09/25,09:00,0.526,0.801,0.490,1.004,0.712,0.317,0.573,0.531,�k�k��,5.5,��
2023/09/25,09:10,0.527,0.799,0.490,1.001,0.714,0.317,0.573,0.531,�k,4.8,��
2023/09/25,09:20,0.528,0.801,0.490,1.003,0.710,0.317,0.573,0.533,�k,4.4,�L
2023/09/25,09:30,0.527,0.801,0.488,1.003,0.707,0.318,0.574,0.531,�k�k��,4.6,��
2023/09/25,09:40,0.529,0.798,0.488,1.003,0.713,0.318,0.573,0.533,�k�k��,5.2,��
2023/09/25,09:50,0.528,0.800,0.490,1.002,0.711,0.318,0.571,0.531,�k,4.5,��
2023/09/25,10:00,0.527,0.800,0.491,1.001,0.712,0.319,0.572,0.532,�k�k��,6.0,��
2023/09/25,10:10,0.527,0.801,0.490,1.003,0.712,0.319,0.571,0.532,�k,4.7,��
2023/09/25,10:20,0.528,0.798,0.489,1.002,0.715,0.319,0.573,0.531,�k�k��,4.5,��
2023/09/25,10:30,0.529,0.799,0.488,1.002,0.714,0.318,0.571,0.531,�k�k��,3.8,��
2023/09/25,10:40,0.527,0.802,0.489,1.002,0.714,0.319,0.571,0.531,�k,4.6,��
2023/09/25,10:50,0.530,0.801,0.487,1.002,0.712,0.318,0.572,0.530,�k�k��,4.5,��
2023/09/25,11:00,0.524,0.800,0.487,1.004,0.711,0.319,0.571,0.533,�k,4.3,��
2023/09/25,11:10,0.530,0.799,0.487,1.004,0.714,0.319,0.572,0.531,�k,3.8,��
2023/09/25,11:20,0.530,0.799,0.489,1.003,0.712,0.318,0.572,0.532,�k,3.5,��
2023/09/25,11:30,0.530,0.801,0.485,1.003,0.713,0.318,0.572,0.531,�k�k��,3.1,��
2023/09/25,11:40,0.530,0.801,0.490,1.002,0.713,0.319,0.572,0.532,�k,2.3,��
2023/09/25,11:50,0.531,0.803,0.491,1.002,0.713,0.318,0.572,0.531,�k�k��,3.1,��
2023/09/25,12:00,0.529,0.803,0.492,1.004,0.715,0.321,0.573,0.532,�k�k��,4.2,��
2023/09/25,12:10,0.531,0.804,0.492,1.003,0.717,0.319,0.571,0.533,�k,4.6,��
2023/09/25,12:20,0.530,0.804,0.493,1.003,0.714,0.319,0.572,0.533,�k�k��,4.3,��
2023/09/25,12:30,0.530,0.802,0.492,1.003,0.713,0.319,0.572,0.533,�k�k��,4.8,��
2023/09/25,12:40,0.530,0.803,0.490,1.004,0.717,0.318,0.573,0.533,�k��,5.1,��
2023/09/25,12:50,0.531,0.804,0.493,1.003,0.715,0.319,0.572,0.531,�k�k��,4.6,��
2023/09/25,13:00,0.531,0.805,0.492,1.005,0.716,0.319,0.572,0.530,�k�k��,4.5,��
2023/09/25,13:10,0.531,0.805,0.492,1.005,0.716,0.319,0.573,0.533,�k�k��,4.5,��
2023/09/25,13:20,0.530,0.805,0.491,1.004,0.717,0.319,0.573,0.532,�k,4.5,��
2023/09/25,13:30,0.530,0.804,0.491,1.005,0.716,0.319,0.573,0.532,�k,4.1,��
2023/09/25,13:40,0.531,0.804,0.491,1.004,0.715,0.319,0.574,0.533,�k,4.3,��
2023/09/25,13:50,0.529,0.807,0.493,1.005,0.719,0.319,0.573,0.532,�k,4.4,��
2023/09/25,14:00,0.530,0.804,0.491,1.002,0.715,0.320,0.572,0.532,�k,5.2,��
2023/09/25,14:10,0.530,0.806,0.492,1.005,0.716,0.319,0.573,0.533,�k,5.5,��
2023/09/25,14:20,0.532,0.802,0.490,1.005,0.716,0.319,0.572,0.531,�k,4.8,��
2023/09/25,14:30,0.530,0.806,0.492,1.003,0.717,0.318,0.573,0.532,�k�k��,4.0,��
2023/09/25,14:40,0.530,0.805,0.490,1.006,0.714,0.319,0.571,0.532,�k,5.4,��
2023/09/25,14:50,0.530,0.804,0.491,1.005,0.716,0.318,0.572,0.533,�k,5.3,��
2023/09/25,15:00,0.530,0.806,0.492,1.006,0.715,0.320,0.572,0.531,�k�k��,5.4,��
2023/09/25,15:10,0.530,0.807,0.492,1.005,0.716,0.320,0.573,0.532,�k�k��,5.0,��
2023/09/25,15:20,0.531,0.808,0.492,1.006,0.717,0.320,0.573,0.532,�k�k��,5.0,��
2023/09/25,15:30,0.530,0.806,0.492,1.003,0.718,0.320,0.573,0.533,�k,5.0,��
2023/09/25,15:40,0.530,0.807,0.493,1.007,0.716,0.320,0.573,0.534,�k,4.5,��
2023/09/25,15:50,0.529,0.806,0.495,1.006,0.717,0.320,0.572,0.532,�k,3.7,��
2023/09/25,16:00,0.531,0.807,0.493,1.003,0.718,0.320,0.574,0.531,�k,4.4,��
2023/09/25,16:10,0.530,0.806,0.491,1.003,0.720,0.321,0.574,0.532,�k,4.3,��
2023/09/25,16:20,0.529,0.809,0.494,1.006,0.718,0.319,0.572,0.531,�k,3.9,��
2023/09/25,16:30,0.531,0.809,0.494,1.006,0.719,0.321,0.572,0.532,�k,3.7,��
2023/09/25,16:40,0.531,0.807,0.494,1.007,0.718,0.320,0.572,0.533,�k,3.8,��
2023/09/25,16:50,0.530,0.808,0.494,1.003,0.719,0.321,0.573,0.533,�k�k��,3.5,��
2023/09/25,17:00,0.532,0.810,0.493,1.005,0.720,0.320,0.574,0.533,�k��,4.6,��
2023/09/25,17:10,0.532,0.808,0.492,1.003,0.718,0.320,0.572,0.534,���k��,4.4,��
2023/09/25,17:20,0.533,0.807,0.493,1.005,0.717,0.319,0.574,0.534,���k��,3.7,��
2023/09/25,17:30,0.530,0.808,0.494,1.007,0.717,0.320,0.574,0.534,���k��,3.2,��
2023/09/25,17:40,0.532,0.809,0.493,1.004,0.717,0.319,0.573,0.534,��,3.1,��
2023/09/25,17:50,0.531,0.808,0.495,1.005,0.717,0.319,0.572,0.535,��,1.5,��
2023/09/25,18:00,0.532,0.809,0.494,1.003,0.718,0.321,0.573,0.534,�쓌,1.2,��
2023/09/25,18:10,0.533,0.810,0.493,1.006,0.719,0.321,0.573,0.534,��쐼,0.6,��
2023/09/25,18:20,0.532,0.807,0.494,1.005,0.719,0.319,0.573,0.535,���k��,1.1,��
2023/09/25,18:30,0.530,0.808,0.493,1.005,0.719,0.319,0.571,0.534,���쐼,0.9,��
2023/09/25,18:40,0.533,0.809,0.494,1.008,0.720,0.320,0.572,0.533,��,0.8,��
2023/09/25,18:50,0.532,0.807,0.494,1.006,0.718,0.320,0.574,0.533,-,CALM,��
2023/09/25,19:00,0.531,0.809,0.493,1.008,0.718,0.320,0.574,0.532,�k�k��,1.2,��
2023/09/25,19:10,0.532,0.809,0.494,1.007,0.719,0.320,0.573,0.534,�k��,0.9,��
2023/09/25,19:20,0.531,0.808,0.495,1.005,0.718,0.320,0.572,0.533,�k�k��,1.5,��
2023/09/25,19:30,0.531,0.809,0.493,1.005,0.718,0.320,0.572,0.535,�k��,2.9,�L
2023/09/25,19:40,0.532,0.806,0.492,1.005,0.718,0.321,0.573,0.534,�k��,2.6,�L
2023/09/25,19:50,0.531,0.810,0.495,1.006,0.719,0.320,0.573,0.534,�k��,2.2,��
2023/09/25,20:00,0.532,0.809,0.493,1.007,0.718,0.320,0.573,0.534,�k�k��,1.7,�L
2023/09/25,20:10,0.532,0.809,0.494,1.007,0.719,0.320,0.572,0.532,�k��,1.5,��
2023/09/25,20:20,0.532,0.808,0.492,1.009,0.719,0.321,0.573,0.532,�k��,2.3,��
2023/09/25,20:30,0.531,0.808,0.493,1.006,0.719,0.321,0.572,0.532,�k��,2.0,��
2023/09/25,20:40,0.531,0.809,0.493,1.007,0.720,0.322,0.573,0.534,�k��,1.1,��
2023/09/25,20:50,0.532,0.808,0.493,1.005,0.721,0.321,0.572,0.534,�k��,1.9,��
2023/09/25,21:00,0.530,0.809,0.494,1.007,0.717,0.320,0.572,0.532,�k��,2.0,��
2023/09/25,21:10,0.531,0.810,0.494,1.006,0.719,0.321,0.573,0.534,�k��,1.9,��
2023/09/25,21:20,0.530,0.806,0.494,1.008,0.718,0.321,0.573,0.533,�k��,1.4,��
2023/09/25,21:30,0.533,0.809,0.495,1.005,0.719,0.320,0.572,0.534,�k��,1.7,��
2023/09/25,21:40,0.532,0.808,0.494,1.007,0.721,0.320,0.573,0.535,�k��,2.0,��
2023/09/25,21:50,0.532,0.808,0.493,1.007,0.719,0.319,0.571,0.532,�k��,2.0,��
2023/09/25,22:00,0.533,0.809,0.494,1.005,0.718,0.319,0.573,0.534,�k��,1.2,��
2023/09/25,22:10,0.532,0.807,0.492,1.007,0.719,0.321,0.572,0.533,�k��,1.2,��
2023/09/25,22:20,0.532,0.809,0.494,1.005,0.719,0.321,0.572,0.532,�k�k��,1.2,��
2023/09/25,22:30,0.532,0.809,0.493,1.006,0.718,0.321,0.573,0.532,�k��,1.5,��
2023/09/25,22:40,0.532,0.808,0.494,1.007,0.720,0.321,0.573,0.534,�k�k��,1.4,��
2023/09/25,22:50,0.532,0.807,0.494,1.008,0.720,0.321,0.572,0.535,�k��,0.6,��
2023/09/25,23:00,0.532,0.809,0.495,1.006,0.719,0.320,0.573,0.533,�k�k��,0.9,��
2023/09/25,23:10,0.533,0.808,0.493,1.006,0.721,0.320,0.574,0.533,�k,1.2,��
2023/09/25,23:20,0.532,0.809,0.494,1.006,0.719,0.320,0.573,0.533,�k�k��,1.5,��
2023/09/25,23:30,0.532,0.808,0.494,1.006,0.720,0.320,0.573,0.533,�k��,1.5,��
2023/09/25,23:40,0.531,0.808,0.491,1.009,0.719,0.321,0.572,0.533,�k�k��,2.0,��
2023/09/25,23:50,0.533,0.809,0.495,1.006,0.718,0.322,0.574,0.532,�k��,1.7,��
